Weather History for Chamberlain, SD

Change the Weather History Date:

Saturday, January 11, 2014

  Actual Average Record
Temperature  
Mean Temperature 35 °F -  
Max Temperature 45 °F 26 °F 57 °F (2004)
Min Temperature 25 °F 7 °F -13 °F (1997)
Degree Days  
Heating Degree Days 30    
Moisture  
Dew Point 24 °F    
Average Humidity 66    
Maximum Humidity 81    
Minimum Humidity 44    
Precipitation  
Precipitation 0.00 in - - ()
Sea Level Pressure  
Sea Level Pressure 29.69 in    
Wind  
Wind Speed 10 mph (West)    
Max Wind Speed 13 mph    
Max Gust Speed -    
Averages and records for this station are not official NWS values.
T = Trace of Precipitation, MM = Missing Value Source: NWS Daily Summary

Daily Weather History Graph

Daily Weather History Graph

Search for Another Location

Airport:

Trip Planner

Search our weather history database for the weather conditions in past years. The results will help you decide how hot, cold, wet, or windy it might be!

Date:

Astronomy

Jan. 11, 2014 Rise Set
Actual Time 8:09 AM CST 5:21 PM CST
Civil Twilight 7:37 AM CST 5:53 PM CST
Nautical Twilight 7:01 AM CST 6:29 PM CST
Astronomical Twilight 6:27 AM CST 7:03 PM CST
Moon 2:07 PM CST (1/11) 4:14 AM CST (1/11)
Length of Visible Light 10h 15m
Length of Day
9h 11m
Waxing Gibbous, 83% of the Moon is Illuminated
Jan 11
Waxing Gibbous
Jan 15
Full
Jan 23
Last Quarter
Jan 30
New
Feb 6
First Quarter

Hourly Weather History & Observations

Time (CST) Temp. Windchill Dew Point Humidity Pressure Visibility Wind Dir Wind Speed Gust Speed Precip Events Conditions
12:52 AM 30.9 °F 21.7 °F 23.0 °F 72% 29.64 in - West 11.5 mph - N/A   Unknown
1:52 AM 32.0 °F 22.5 °F 24.1 °F 73% 29.64 in - WNW 12.7 mph - N/A   Unknown
2:52 AM 30.9 °F 21.2 °F 23.0 °F 72% 29.68 in - NW 12.7 mph - N/A   Unknown
3:52 AM 28.9 °F 20.4 °F 21.9 °F 75% 29.71 in - NW 9.2 mph - N/A   Unknown
4:52 AM 28.9 °F 21.9 °F 21.0 °F 72% 29.74 in - NNW 6.9 mph - N/A   Unknown
5:52 AM 28.0 °F - 21.0 °F 75% 29.76 in - Calm Calm - N/A   Unknown
6:52 AM 25.0 °F 16.3 °F 19.9 °F 81% 29.79 in - NNW 8.1 mph - N/A   Unknown
7:52 AM 26.1 °F 16.8 °F 19.0 °F 75% 29.81 in - NW 9.2 mph - N/A   Unknown
8:52 AM 27.0 °F 16.7 °F 19.9 °F 75% 29.83 in - WNW 11.5 mph - N/A   Unknown
9:52 AM 30.9 °F 23.5 °F 19.9 °F 64% 29.83 in - NW 8.1 mph - N/A   Unknown
10:52 AM 35.1 °F 26.9 °F 21.9 °F 59% 29.83 in - NW 11.5 mph - N/A   Unknown
11:52 AM 37.9 °F 30.0 °F 24.1 °F 57% 29.83 in - WNW 12.7 mph - N/A   Unknown
12:52 PM 39.9 °F 32.5 °F 26.1 °F 58% 29.78 in - WNW 12.7 mph - N/A   Unknown
1:52 PM 43.0 °F 38.2 °F 25.0 °F 49% 29.75 in - West 8.1 mph - N/A   Unknown
2:52 PM 45.0 °F 40.6 °F 24.1 °F 44% 29.73 in - West 8.1 mph - N/A   Unknown
3:52 PM 44.1 °F 40.8 °F 26.1 °F 49% 29.71 in - South 5.8 mph - N/A   Unknown
4:52 PM 39.9 °F 34.5 °F 26.1 °F 58% 29.69 in - South 8.1 mph - N/A   Unknown
5:52 PM 36.0 °F 29.6 °F 26.1 °F 67% 29.66 in - SSE 8.1 mph - N/A   Unknown
6:52 PM 33.1 °F 25.5 °F 25.0 °F 72% 29.64 in - SSE 9.2 mph - N/A   Unknown
7:52 PM 33.1 °F 26.9 °F 25.0 °F 72% 29.60 in - SSE 6.9 mph - N/A   Unknown
8:52 PM 35.1 °F 26.4 °F 26.1 °F 70% 29.54 in - SSE 12.7 mph - N/A   Unknown
9:52 PM 34.0 °F 29.8 °F 26.1 °F 73% 29.49 in - ESE 4.6 mph - N/A   Unknown
10:52 PM 39.9 °F 33.9 °F 27.0 °F 60% 29.44 in - SSW 9.2 mph - N/A   Unknown
11:52 PM 41.0 °F 36.4 °F 28.0 °F 60% 29.39 in - SW 6.9 mph - N/A   Unknown